STARLINK-35065

Last updated on Tue Sep 16 2025 00:02:08 GMT+0000 (Coordinated Universal Time)

1 65441U 25194H 25257.95833962 .02885867 00000+0 12789-1 0 9998 2 65441 97.5980 109.2786 0008821 281.7621 78.2657 15.81161228 3080
UTC large
Height (km)
Speed (km/s)
/
Latitude / Longitude
Inclination (degrees)
Orbital Period (minutes)
Azimuth
Elevation
Range (km)
Doppler Factor

Next 0 passes for location: London (51.5072 / 0.1276)

Sorry there are no passes over London.